Location: *
(49.3808°N, 3.1844°E)
Time: 23:39:15
(UTC+00:00)

Daily predictions for brighter satellites

Satellite Brightness Start Highest point End
(mag) Time Altitude Azimuth Time Altitude Azimuth Time Altitude Azimuth
Unknown 3.7 17:15:41 10° WSW 17:19:50 90° SSE 17:24:01 10° ENE
Unknown 3.7 17:17:20 10° WSW 17:21:29 89° N 17:25:39 10° ENE
Cosmos 1844 Rocket 2.7 17:16:21 10° SSW 17:21:57 69° ESE 17:27:35 10° NNE
Cosmos 2058 Rocket 3.8 17:19:00 10° SSE 17:22:49 31° E 17:26:39 10° NNE
Unknown 3.8 17:21:51 10° WNW 17:25:16 45° N 17:28:40 10° E
Cosmos 1953 2.3 17:21:18 10° S 17:25:20 69° E 17:29:24 10° NNE
Unknown 3.7 17:23:41 10° WSW 17:27:49 83° NNW 17:31:59 10° ENE
Unknown 3.7 17:24:00 10° WSW 17:28:09 84° NNW 17:32:19 10° ENE
Unknown 3.7 17:24:37 10° WSW 17:28:47 83° NNW 17:32:57 10° ENE
Cosmos 2239 Rocket 4.4 17:23:36 10° N 17:29:47 75° E 17:35:55 10° SSE
Okean-O 2.8 17:26:36 10° SSE 17:31:02 82° WSW 17:35:30 10° NNW
SMAP 3.9 17:26:54 10° S 17:31:28 56° W 17:36:04 10° NNW
Unknown 3.7 17:28:14 10° WSW 17:32:24 80° NNW 17:36:33 10° ENE
Unknown 3.7 17:29:01 10° WSW 17:33:10 80° NNW 17:37:20 10° ENE
FengYun 1-2 T 4.3 17:28:01 10° SSE 17:33:34 60° ENE 17:39:04 10° N
Cosmos 1758 4.1 17:29:47 10° SSW 17:33:41 57° WNW 17:37:37 10° N
Falcon 9 debris 3.6 17:31:31 10° WNW 17:34:53 48° N 17:38:02 11° E
Unknown 3.7 17:30:48 10° WSW 17:34:57 77° NNW 17:39:07 10° ENE
CZ-4C R/B 4.2 17:28:21 10° NW 17:35:12 46° WSW 17:42:53 10° S
BREEZE-M DEB (TANK) 3.5 17:31:13 10° WNW 17:35:17 90° N 17:45:12 10° ESE
Lacrosse 5 2.3 17:32:07 10° NW 17:37:01 46° NNE 17:41:43 11° E
Meteor 1-16 Rocket 4.3 17:31:50 10° S 17:37:11 52° E 17:42:25 10° NNE
COSMO-SKYMED 1 2.9 17:33:35 10° NNE 17:37:45 43° E 17:41:54 10° S
Cosmos 1821 Rocket 4.0 17:31:47 10° N 17:37:56 87° W 17:44:06 10° S
Cosmos 1605 Rocket 4.3 17:32:20 10° N 17:38:15 44° ENE 17:44:05 10° SE
Unknown 3.7 17:34:07 10° WSW 17:38:16 75° NNW 17:42:20 11° ENE
Unknown 3.7 17:34:25 10° WSW 17:38:34 76° NNW 17:42:37 11° ENE
Cosmos 968 Rocket 4.4 17:33:32 10° NNW 17:38:42 55° WSW 17:43:48 10° S
Unknown 3.7 17:35:41 10° WSW 17:39:49 75° NNW 17:43:50 11° ENE
Cosmos 1908 4.1 17:38:14 10° SSE 17:41:35 28° E 17:44:57 10° NNE
Unknown 3.7 17:38:51 10° WSW 17:42:59 74° NNW 17:46:52 12° ENE
Cosmos 1825 Rocket 4.3 17:40:14 10° NNW 17:44:32 58° W 17:48:51 10° S
Cosmos 2278 Rocket 3.0 17:41:21 10° SSE 17:46:10 29° ESE 17:51:00 10° NE
Unknown 3.8 17:42:19 10° WSW 17:46:28 71° NNW 17:50:11 13° ENE
ATLAS 5 CENTAUR R/B 2.3 17:42:25 10° WSW 17:46:42 56° NW 17:51:36 10° NE
Cosmos 1934 Rocket 4.0 17:40:51 10° N 17:47:12 74° E 17:53:34 10° SSE
Cosmos 1953 Rocket 3.7 17:43:25 10° NNW 17:47:49 77° W 17:52:08 10° S
Unknown 3.6 17:44:34 10° WNW 17:47:59 50° N 17:50:40 15° E
Unknown 3.8 17:44:00 10° WSW 17:48:08 70° NNW 17:51:48 13° ENE
Unknown 3.8 17:45:39 10° WSW 17:49:47 69° NNW 17:53:23 14° ENE
Nadezhda 3 Rocket 4.2 17:44:03 10° SSW 17:50:21 81° W 17:56:46 10° N
Cosmos 1844 3.8 17:45:32 10° SSW 17:51:16 88° ESE 17:57:06 10° NNE
Unknown 3.8 17:47:19 10° WSW 17:51:27 68° NNW 17:54:59 14° ENE
Lacrosse 5 rocket 3.5 17:49:03 10° WNW 17:52:05 23° SW 17:55:15 10° S
Cosmos 1535 Rocket 4.4 17:47:43 10° N 17:53:59 82° E 18:00:08 10° S
Ariane Rocket 3.6 17:50:12 10° SE 17:54:49 36° ENE 17:59:28 10° N
Unknown 3.8 17:50:42 10° W 17:54:49 66° NNW 17:58:12 15° ENE
Unknown 3.9 17:52:24 10° W 17:56:32 65° NNW 17:59:51 15° ENE
Unknown 3.9 17:54:00 10° W 17:58:08 65° NNW 18:01:22 16° ENE
Cosmos 1939 Rocket 3.4 17:56:00 10° SE 17:59:40 36° ENE 18:03:25 10° N
Unknown 3.9 17:55:39 10° W 17:59:46 65° NNW 18:02:57 16° ENE
Abrixas rocket 3.8 17:57:32 10° SSW 17:59:48 19° SSE 18:00:46 17° ESE
Unknown 3.9 17:56:05 10° W 18:00:12 64° NNW 18:03:22 17° ENE
Unknown 4.3 17:58:36 10° W 18:00:57 28° SW 18:03:18 10° SSE
Cosmos 1992 Rocket 4.5 17:55:49 10° SW 18:01:00 65° WNW 18:06:14 10° NNE
Cosmos 1461 3.1 17:57:27 10° NNW 18:01:24 48° NE 18:04:27 16° ESE
COBE Rocket 4.0 17:56:12 10° NNE 18:01:26 88° WNW 18:06:31 10° SSW
Cosmos 1606 Rocket 4.2 17:57:11 10° SSW 18:01:30 60° WNW 18:05:50 10° N
SKYMED 3 4.5 17:57:26 10° NNE 18:01:49 75° ESE 18:06:09 10° S
Cosmos 1328 3.7 17:58:09 10° N 18:02:11 87° E 18:06:08 10° S
Unknown 3.9 17:58:48 10° W 18:02:56 65° NNW 18:05:58 17° ENE
Cosmos 1242 Rocket 2.8 17:59:17 10° NNW 18:03:00 74° W 18:06:39 10° S
NOSS 3-2 (A) 4.5 18:01:36 10° SSE 18:05:58 22° ESE 18:08:33 17° ENE
Unknown 3.9 18:02:12 10° W 18:06:19 63° NNW 18:09:13 19° ENE
CSL-04 Rocket 3.7 18:01:14 10° SSE 18:06:46 84° ENE 18:12:17 10° NNW
Unknown 3.9 18:03:50 10° W 18:07:57 62° NNW 18:10:46 19° ENE
Cosmos 2084 Rocket 4.3 18:04:47 10° NNW 18:08:52 34° NNE 18:11:04 22° E
Cosmos 1726 2.0 18:05:17 10° S 18:08:56 84° E 18:12:36 10° N
Cosmos 2263 Rocket 4.5 18:05:28 10° W 18:09:38 20° NW 18:13:47 10° N
Unknown 4.0 18:05:46 10° W 18:09:52 60° NNW 18:12:37 20° ENE
Unknown 3.2 18:07:19 10° WNW 18:10:24 61° SSW 18:12:18 21° SE
Unknown 3.9 18:07:08 10° W 18:11:14 61° NNW 18:13:56 20° ENE
Unknown 3.9 18:08:50 10° W 18:12:56 60° NNW 18:15:34 21° ENE
Cosmos 1777 Rocket 3.9 18:08:00 10° NNW 18:13:16 87° ENE 18:18:28 10° SSE
HJ-1C 4.1 18:14:01 27° ESE 18:14:56 32° ENE 18:17:59 10° N
Unknown 4.0 18:12:12 10° W 18:16:19 59° NNW 18:18:48 22° ENE
NOAA 11 4.2 18:11:41 10° SSE 18:17:02 63° ENE 18:22:25 10° N
Unknown 4.0 18:13:53 10° W 18:17:59 59° NNW 18:20:24 23° ENE
ATLAS CENTAUR R/B 3.9 18:17:12 10° NNW 18:19:14 13° N 18:21:13 10° NNE
Unknown 4.0 18:15:33 10° W 18:19:39 58° NNW 18:22:00 24° ENE
Cosmos 2100 Rocket 4.4 18:14:42 10° N 18:20:30 39° ENE 18:25:37 13° SE
Cosmos 1812 Rocket 4.0 18:16:50 10° SSE 18:20:54 37° E 18:25:01 10° NNE
ARGOS 4.3 18:19:44 22° ENE 18:20:56 23° ENE 18:25:08 10° N
Unknown 4.0 18:17:14 10° W 18:21:19 58° NNW 18:23:35 25° ENE
Cosmos 1833 Rocket 2.6 18:17:37 10° NNW 18:23:16 76° ENE 18:28:53 10° SSE
Unknown 3.9 18:20:38 10° WNW 18:24:17 48° N 18:25:43 31° ENE
Cosmos 1076 Rocket 3.9 18:20:25 10° N 18:24:36 42° ENE 18:27:01 22° SE
CZ-4 R/B 2.4 18:20:33 10° S 18:24:37 51° W 18:28:46 10° NNW
Unknown 4.0 18:20:33 10° W 18:24:38 56° N 18:26:46 26° ENE
SKYMED 2 4.0 18:21:33 10° N 18:25:52 64° WNW 18:30:09 10° SSW
Unknown 4.0 18:21:57 10° W 18:26:02 56° N 18:28:06 27° ENE
BREEZE-M DEB (TANK) 3.7 18:16:38 10° SW 18:26:17 38° SSE 18:28:00 27° ESE
Unknown 4.1 18:22:31 10° W 18:26:35 54° N 18:28:37 27° ENE
Unknown 4.1 18:24:10 10° W 18:28:14 54° N 18:30:12 28° ENE
CZ-2D R/B 3.1 18:25:03 10° SSE 18:28:54 81° ENE 18:32:48 10° N
YAOGAN 1 3.2 18:26:22 10° S 18:30:37 59° W 18:34:56 10° NNW
Unknown 4.0 18:27:15 10° W 18:31:20 55° N 18:33:10 29° NE
Cosmos 489 Rocket 4.5 18:26:47 10° SSW 18:33:00 87° WNW 18:39:16 10° NNE
Cosmos 1153 Rocket 4.4 18:28:09 10° N 18:34:18 73° ENE 18:40:25 10° SSE
Unknown 4.1 18:30:35 10° W 18:34:40 54° N 18:36:21 31° NE
Unknown 4.1 18:31:37 10° W 18:35:38 52° N 18:37:13 32° NE
Unknown 4.1 18:32:17 10° W 18:36:22 54° N 18:37:59 32° NE
H-2A R/B 2.9 18:35:44 29° E 18:36:40 31° ENE 18:41:23 10° N
Unknown 4.1 18:33:56 10° W 18:38:00 53° N 18:39:33 33° NE
Unknown 4.1 18:34:08 10° W 18:38:06 50° N 18:39:29 34° NE
Meteor 2-10 4.4 18:34:18 10° SSW 18:39:19 63° WNW 18:44:20 10° N
Unknown 4.1 18:35:37 10° W 18:39:41 53° N 18:41:10 34° NE
Cosmos 2016 Rocket 4.5 18:36:13 10° N 18:42:00 37° ENE 18:43:50 31° ESE
Unknown 3.9 18:38:41 10° WNW 18:42:26 49° N 18:43:14 41° NE
BREEZE-M DEB (TANK) 3.3 18:39:33 10° SW 18:42:39 32° S 18:42:39 32° S
Shenzhou-11 Module 4.0 18:42:20 10° WSW 18:44:07 18° SSW 18:44:07 18° SSW
ADEOS Rocket 4.0 18:39:02 10° NNE 18:45:58 35° E 18:52:29 10° SSE
Unknown 4.1 18:42:14 10° W 18:46:17 52° N 18:47:29 38° NE
Cosmos 2082 Rocket 2.1 18:41:49 10° NNW 18:47:35 81° ENE 18:51:05 25° SSE
Unknown 4.1 18:43:59 10° W 18:48:02 52° N 18:49:09 39° NE
Unknown 4.1 18:45:37 10° W 18:49:40 51° N 18:50:43 40° NE
Unknown 4.1 18:47:16 10° W 18:51:20 51° N 18:52:18 41° NE
Unknown 3.9 18:48:59 10° WNW 18:52:48 49° N 18:53:16 46° NNE
Unknown 4.1 18:48:57 10° W 18:53:01 51° N 18:53:54 42° NE
FALCON 9 DEB 3.0 18:50:12 10° WNW 18:53:41 88° SSW 18:53:41 88° SSW
Unknown 3.1 18:51:46 10° WNW 18:55:05 76° SW 18:55:05 76° SW
Cosmos 2151 4.4 18:51:30 10° N 18:53:49 25° NNE 18:53:49 25° NNE
Cosmos 1898 Rocket 3.8 18:50:57 10° NNW 18:56:02 47° ENE 18:56:42 44° E
Gbstr 26 Del rocket 4.3 18:49:58 10° WNW 18:56:07 69° SSW 18:59:47 31° SE
Unknown 4.1 18:52:19 10° W 18:56:22 51° N 18:57:08 44° NNE
Starlink (trailer) 4.1 18:53:58 10° W 18:58:01 51° N 18:58:42 45° NNE
Unknown 4.1 18:55:38 10° W 18:59:41 50° N 19:00:17 46° NNE
Unknown 4.1 18:57:17 10° W 19:01:20 50° N 19:01:53 47° NNE
Cosmos 2058 2.8 18:57:15 10° N 19:01:29 72° E 19:01:38 71° E
SJ-6B 4.0 19:03:36 29° NNE 19:03:36 29° NNE 19:05:41 10° N
Cosmos 2061 Rocket 4.1 18:56:17 10° N 19:02:25 53° ENE 19:04:09 41° ESE
Unknown 3.4 18:59:12 10° WNW 19:02:22 70° WNW 19:02:22 70° WNW
ATLAS 3B R/B 4.1 18:59:18 10° S 19:01:17 18° SSE 19:01:17 18° SSE
Unknown 4.1 19:03:39 10° WNW 19:07:42 50° N 19:07:57 49° NNE
Unknown 4.1 19:03:59 10° WNW 19:08:02 50° N 19:08:16 49° NNE
Unknown 4.1 19:04:36 10° WNW 19:08:40 50° N 19:08:52 49° N
CZ-2C R/B 3.8 19:12:02 40° ENE 19:12:02 40° ENE 19:17:03 10° N
Falcon 9 debris 4.0 19:08:35 10° WNW 19:11:19 49° W 19:11:19 49° W
Unknown 4.1 19:08:12 10° WNW 19:12:15 50° N 19:12:18 50° N
Unknown 4.1 19:09:02 10° WNW 19:13:04 50° N 19:13:05 50° N
In-Cosmos 22 Rocket 4.0 19:08:51 10° N 19:14:16 79° ENE 19:15:44 50° SSE
Unknown 4.2 19:10:49 10° WNW 19:14:48 50° N 19:14:48 50° N
CENTAUR R/B 4.3 19:10:27 10° S 19:11:09 13° S 19:11:09 13° S
Unknown 4.2 19:14:08 10° WNW 19:17:58 49° N 19:17:58 49° N
Unknown 4.2 19:14:26 10° WNW 19:18:16 49° N 19:18:16 49° N
SJ 16-02 2.5 19:14:43 10° NNW 19:17:24 32° NNE 19:17:24 32° NNE
Cosmos 1459 Rocket 3.9 19:12:47 10° N 19:19:02 89° E 19:23:03 24° S
Unknown 4.2 19:15:42 10° WNW 19:19:29 49° NNW 19:19:29 49° NNW
Lacrosse 5 2.1 19:15:11 10° WNW 19:20:11 62° SW 19:20:55 55° S
Unknown 4.3 19:18:52 10° WNW 19:22:31 48° NNW 19:22:31 48° NNW
Unknown 4.4 19:22:21 10° WNW 19:25:50 46° NNW 19:25:50 46° NNW
Unknown 4.5 19:24:02 10° WNW 19:27:27 45° NNW 19:27:27 45° NNW
Cosmos 2278 Rocket 2.9 19:24:24 10° SW 19:29:57 54° NW 19:35:33 10° NNE
Resurs 01 Rocket 3.5 19:32:44 20° N 19:32:44 20° N 19:34:17 10° N
USA 238 DEB 3.5 19:24:09 10° SW 19:30:52 85° SE 19:33:52 37° NE
USA 238 3.5 19:24:15 10° SW 19:30:59 85° SE 19:33:55 38° NE
ATLAS 5 CENTAUR R/B 3.9 19:28:55 10° WNW 19:32:28 21° NNW 19:34:48 16° NNE
Ariane Rocket 4.4 19:29:05 10° SSW 19:33:46 36° W 19:38:29 10° NNW
Okean 3 Rocket 4.2 19:30:38 10° NNW 19:34:08 52° NNW 19:34:08 52° NNW
Cosmos 1802 Rocket 4.1 19:36:55 10° NNW 19:43:22 75° W 19:45:54 39° S
Cosmos 2173 Rocket 4.3 19:37:22 10° NNW 19:43:34 62° W 19:47:19 24° SSW
Cosmos 1864 Rocket 4.3 19:41:33 10° N 19:47:35 83° NE 19:47:35 83° NE
Cosmos 1937 Rocket 4.0 19:47:24 10° NNW 19:51:20 53° NNW 19:51:20 53° NNW
NOSS 3-2 (A) 3.4 19:50:02 10° SW 19:55:55 82° NW 19:56:02 81° NNW
Cosmos 990 Rocket 4.5 19:52:50 10° NNW 19:57:16 57° WNW 19:57:16 57° WNW
SPOT 3 Rocket 4.1 19:58:35 54° W 19:58:35 54° W 20:03:43 10° NNW
ATLAS CENTAUR R/B 3.8 19:56:06 10° NNW 19:57:49 18° N 19:57:49 18° N
ARGOS 3.5 20:01:15 63° WNW 20:01:15 63° WNW 20:06:10 10° NNW
Cosmos 1725 Rocket 4.0 19:56:52 10° NNW 20:03:03 78° W 20:03:03 78° W
Cosmos 2233 Rocket 4.5 19:59:39 10° N 20:04:19 51° N 20:04:19 51° N
H-2A R/B 3.0 20:16:22 45° W 20:16:22 45° W 20:21:07 10° NNW
Cosmos 2082 Rocket 4.4 20:27:08 10° WNW 20:30:58 19° W 20:32:59 16° SW
ADEOS Rocket 3.9 20:24:12 10° N 20:31:50 61° WNW 20:38:59 10° SW
SJ 16-02 4.4 20:53:52 10° NW 20:54:24 12° NW 20:54:24 12° NW
